| time (UTC) | temp F | wind direction | speed knots | gust knots | rain 1hr in | rain 24hr in | rain mn in | humidity % | barometer mb |
| 20260505071317 | 52 | 353 | 0.0 | 0.0 | 0.07 | 0.81 | 0.81 | 92 | 1010.4 |
| 20260505070815 | 52 | 354 | 0.9 | 3.5 | 0.05 | 0.80 | 0.80 | 90 | 1009.6 |
| 20260505070311 | 53 | 349 | 0.0 | 1.7 | 0.05 | 0.80 | 0.80 | 91 | 1009.3 |
| 20260505065806 | 53 | 329 | 1.7 | 2.6 | 0.07 | 0.79 | 0.79 | 91 | 1008.9 |
| 20260505065304 | 53 | 10 | 0.9 | 1.7 | 0.07 | 0.79 | 0.79 | 93 | 1008.7 |
| 20260505064800 | 54 | 297 | 0.9 | 2.6 | 0.05 | 0.78 | 0.78 | 95 | 1008.8 |
| 20260505064258 | 54 | 359 | 0.0 | 0.0 | 0.12 | 0.78 | 0.78 | 94 | 1008.9 |
| 20260505063755 | 54 | 350 | 0.0 | 0.0 | 0.24 | 0.77 | 0.77 | 94 | 1008.9 |
| 20260505063252 | 54 | 324 | 0.0 | 0.9 | 0.24 | 0.76 | 0.76 | 93 | 1008.8 |
| 20260505062748 | 54 | 344 | 0.9 | 1.7 | 0.38 | 0.73 | 0.73 | 93 | 1008.6 |
| 20260505062246 | 54 | 346 | 0.0 | 0.9 | 0.85 | 0.71 | 0.71 | 94 | 1007.7 |
| 20260505061742 | 54 | 357 | 0.9 | 2.6 | 0.83 | 0.65 | 0.65 | 92 | 1008.2 |
| 20260505061240 | 55 | 331 | 1.7 | 3.5 | 1.28 | 0.56 | 0.56 | 91 | 1008.0 |
| 20260505060738 | 55 | 354 | 0.9 | 1.7 | 1.68 | 0.50 | 0.50 | 91 | 1007.9 |
| 20260505060235 | 56 | 341 | 0.9 | 6.1 | 0.92 | 0.32 | 0.32 | 89 | 1007.6 |
| 20260505055729 | 57 | 298 | 0.9 | 6.1 | 0.66 | 0.21 | 0.21 | 86 | 1007.3 |
| 20260505055226 | 58 | 61 | 1.7 | 2.6 | 0.94 | 0.17 | 0.17 | 82 | 1007.1 |
| 20260505054724 | 61 | 327 | 0.9 | 1.7 | 0.38 | 0.06 | 0.06 | 75 | 1006.8 |
| 20260505054222 | 63 | 358 | 0.9 | 1.7 | 0.07 | 0.01 | 0.01 | 69 | 1006.5 |
| 20260505053720 | 65 | 298 | 0.9 | 7.0 | 0.00 | 0.00 | 0.00 | 62 | 1006.4 |
| 20260505053215 | 68 | 343 | 1.7 | 11.3 | 0.00 | 0.00 | 0.00 | 53 | 1006.5 |
| 20260505052713 | 69 | 48 | 2.6 | 3.5 | 0.00 | 0.00 | 0.00 | 52 | 1006.4 |
| 20260505052209 | 70 | 255 | 2.6 | 6.1 | 0.00 | 0.00 | 0.00 | 52 | 1006.2 |
| 20260505051707 | 70 | 248 | 0.9 | 7.0 | 0.00 | 0.00 | 0.00 | 64 | 1006.1 |
| 20260505051205 | 70 | 40 | 1.7 | 5.2 | 0.00 | 0.00 | 0.00 | 67 | 1006.1 |
| 20260505050703 | 69 | 32 | 1.7 | 3.5 | 0.00 | 0.00 | 0.00 | 71 | 1005.8 |
| 20260505050201 | 69 | 332 | 0.9 | 2.6 | 0.00 | 0.00 | 0.00 | 73 | 1005.6 |
| 20260505041630 | 70 | 255 | 0.9 | 2.6 | 0.00 | 0.00 | 0.00 | 72 | 1005.1 |
| 20260505041128 | 70 | 322 | 1.7 | 2.6 | 0.00 | 0.00 | 0.00 | 72 | 1005.3 |
| 20260505040624 | 70 | 295 | 2.6 | 3.5 | 0.00 | 0.00 | 0.00 | 72 | 1005.4 |
| 20260505040122 | 70 | 340 | 0.9 | 1.7 | 0.00 | 0.00 | 0.00 | 73 | 1005.4 |
| 20260505035618 | 71 | 305 | 0.9 | 2.6 | 0.00 | 0.00 | 0.00 | 73 | 1005.5 |
| 20260505035114 | 70 | 282 | 2.6 | 5.2 | 0.00 | 0.00 | 0.00 | 73 | 1005.4 |
| 20260505034611 | 70 | 319 | 0.9 | 2.6 | 0.00 | 0.00 | 0.00 | 73 | 1005.4 |
| 20260505034108 | 70 | 340 | 0.9 | 1.7 | 0.00 | 0.00 | 0.00 | 73 | 1005.4 |
| 20260505033605 | 70 | 356 | 0.9 | 2.6 | 0.00 | 0.00 | 0.00 | 73 | 1005.3 |
| 20260505033104 | 71 | 320 | 0.0 | 2.6 | 0.00 | 0.00 | 0.00 | 73 | 1005.6 |
| 20260505032601 | 71 | 315 | 0.0 | 0.9 | 0.00 | 0.00 | 0.00 | 72 | 1005.5 |
| 20260505032057 | 71 | 298 | 1.7 | 1.7 | 0.00 | 0.00 | 0.00 | 72 | 1005.4 |
| 20260505031555 | 71 | 350 | 0.0 | 1.7 | 0.00 | 0.00 | 0.00 | 72 | 1005.3 |
| 20260505031051 | 71 | 269 | 1.7 | 2.6 | 0.00 | 0.00 | 0.00 | 72 | 1005.2 |
| 20260505030548 | 71 | 345 | 0.0 | 0.9 | 0.00 | 0.00 | 0.00 | 72 | 1005.2 |
| 20260505030043 | 71 | 353 | 0.0 | 0.0 | 0.00 | 0.00 | 0.00 | 71 | 1005.2 |
| 20260505025539 | 71 | 345 | 0.9 | 1.7 | 0.00 | 0.00 | 0.00 | 70 | 1005.1 |
| 20260505025038 | 72 | 349 | 0.0 | 0.0 | 0.00 | 0.00 | 0.00 | 69 | 1005.1 |
| 20260505024535 | 71 | 348 | 0.0 | 0.9 | 0.00 | 0.00 | 0.00 | 69 | 1005.0 |
| 20260505024032 | 70 | 282 | 1.7 | 2.6 | 0.00 | 0.00 | 0.00 | 71 | 1004.9 |
| 20260505023529 | 69 | 343 | 0.0 | 0.0 | 0.00 | 0.00 | 0.00 | 73 | 1004.9 |
| 20260505023027 | 69 | 345 | 0.0 | 0.0 | 0.00 | 0.00 | 0.00 | 74 | 1004.7 |
| 20260505022524 | 70 | 352 | 0.0 | 0.0 | 0.00 | 0.00 | 0.00 | 73 | 1004.7 |
| 20260505022021 | 70 | 352 | 0.0 | 0.0 | 0.00 | 0.00 | 0.00 | 72 | 1004.6 |
| 20260505021518 | 70 | 355 | 0.0 | 0.9 | 0.00 | 0.00 | 0.00 | 71 | 1004.5 |
| 20260505021015 | 70 | 349 | 0.0 | 0.0 | 0.00 | 0.00 | 0.00 | 72 | 1004.5 |
| 20260505020514 | 70 | 351 | 0.0 | 0.0 | 0.00 | 0.00 | 0.00 | 71 | 1004.6 |
| 20260505020012 | 70 | 352 | 0.0 | 0.0 | 0.00 | 0.00 | 0.00 | 71 | 1004.4 |
| 20260505015509 | 70 | 350 | 0.0 | 0.0 | 0.00 | 0.00 | 0.00 | 71 | 1004.3 |
| 20260505015006 | 70 | 350 | 0.0 | 0.0 | 0.00 | 0.00 | 0.00 | 70 | 1004.2 |
| 20260505014503 | 71 | 350 | 0.0 | 0.0 | 0.00 | 0.00 | 0.00 | 69 | 1004.2 |
| 20260505014000 | 71 | 350 | 0.0 | 0.0 | 0.00 | 0.00 | 0.00 | 68 | 1004.0 |
| 20260505013457 | 71 | 349 | 0.0 | 0.0 | 0.00 | 0.00 | 0.00 | 67 | 1003.9 |
| 20260505012954 | 71 | 353 | 0.0 | 0.0 | 0.00 | 0.00 | 0.00 | 66 | 1003.8 |
| 20260505012452 | 71 | 352 | 0.0 | 0.0 | 0.00 | 0.00 | 0.00 | 66 | 1003.9 |
| 20260505011949 | 72 | 351 | 0.0 | 0.0 | 0.00 | 0.00 | 0.00 | 66 | 1003.9 |
| 20260505011444 | 72 | 352 | 0.0 | 0.9 | 0.00 | 0.00 | 0.00 | 65 | 1003.7 |
| 20260505010942 | 73 | 357 | 0.0 | 0.0 | 0.00 | 0.00 | 0.00 | 64 | 1003.7 |
| 20260505010437 | 73 | 351 | 0.0 | 0.0 | 0.00 | 0.00 | 0.00 | 62 | 1003.6 |
| 20260505005933 | 74 | 351 | 0.0 | 0.0 | 0.00 | 0.00 | 0.00 | 60 | 1003.7 |
| 20260505005430 | 75 | 352 | 0.0 | 0.0 | 0.00 | 0.00 | 0.00 | 59 | 1003.5 |
| 20260505004928 | 75 | 352 | 0.0 | 0.0 | 0.00 | 0.00 | 0.00 | 58 | 1003.6 |
| 20260505004424 | 76 | 351 | 0.0 | 0.0 | 0.00 | 0.00 | 0.00 | 57 | 1003.3 |
| 20260505003921 | 77 | 352 | 0.0 | 0.0 | 0.00 | 0.00 | 0.00 | 57 | 1003.3 |
| 20260505003419 | 77 | 348 | 0.0 | 0.0 | 0.00 | 0.00 | 0.00 | 56 | 1003.4 |
| 20260505002915 | 78 | 351 | 0.0 | 0.0 | 0.00 | 0.00 | 0.00 | 55 | 1003.3 |
| 20260505002411 | 78 | 351 | 0.0 | 0.0 | 0.00 | 0.00 | 0.00 | 55 | 1003.1 |
| 20260505001910 | 78 | 349 | 0.0 | 0.0 | 0.00 | 0.00 | 0.00 | 55 | 1003.2 |
| 20260505001407 | 78 | 344 | 0.0 | 0.0 | 0.00 | 0.00 | 0.00 | 54 | 1003.2 |
| 20260505000904 | 78 | 336 | 0.0 | 0.9 | 0.00 | 0.00 | 0.00 | 52 | 1003.2 |
| 20260505000402 | 78 | 347 | 0.0 | 0.0 | 0.00 | 0.00 | 0.00 | 54 | 1003.3 |
| 20260504235858 | 79 | 351 | 0.0 | 0.0 | 0.00 | 0.00 | 0.00 | 54 | 1003.5 |
| 20260504235355 | 79 | 337 | 0.0 | 0.9 | 0.00 | 0.00 | 0.00 | 51 | 1003.3 |
| 20260504234851 | 79 | 351 | 0.0 | 0.9 | 0.00 | 0.00 | 0.00 | 52 | 1003.3 |
| 20260504234349 | 79 | 308 | 0.0 | 0.9 | 0.00 | 0.00 | 0.00 | 53 | 1003.4 |
| 20260504233846 | 79 | 349 | 0.0 | 1.7 | 0.00 | 0.00 | 0.00 | 50 | 1003.2 |
| 20260504233341 | 79 | 338 | 0.0 | 0.0 | 0.00 | 0.00 | 0.00 | 51 | 1003.3 |
| 20260504232838 | 80 | 20 | 0.9 | 1.7 | 0.00 | 0.00 | 0.00 | 50 | 1003.4 |
| 20260504232336 | 79 | 351 | 0.0 | 2.6 | 0.00 | 0.00 | 0.00 | 52 | 1003.4 |
| 20260504231832 | 80 | 196 | 2.6 | 5.2 | 0.00 | 0.00 | 0.00 | 50 | 1003.5 |
| 20260504231329 | 80 | 21 | 0.0 | 0.9 | 0.00 | 0.00 | 0.00 | 52 | 1003.5 |
| 20260504230825 | 80 | 37 | 0.9 | 0.9 | 0.00 | 0.00 | 0.00 | 52 | 1003.4 |
| 20260504230323 | 80 | 349 | 0.9 | 5.2 | 0.00 | 0.00 | 0.00 | 49 | 1003.4 |
| 20260504225821 | 81 | 18 | 0.9 | 5.2 | 0.00 | 0.00 | 0.00 | 49 | 1003.4 |
| 20260504225317 | 81 | 258 | 1.7 | 5.2 | 0.00 | 0.00 | 0.00 | 47 | 1003.3 |
| 20260504224815 | 82 | 128 | 1.7 | 3.5 | 0.00 | 0.00 | 0.00 | 46 | 1003.5 |
| 20260504224312 | 82 | 330 | 0.9 | 0.9 | 0.00 | 0.00 | 0.00 | 50 | 1003.4 |
| 20260504223808 | 81 | 332 | 0.9 | 2.6 | 0.00 | 0.00 | 0.00 | 48 | 1003.4 |
| 20260504223304 | 82 | 247 | 1.7 | 6.1 | 0.00 | 0.00 | 0.00 | 46 | 1003.5 |
| 20260504222801 | 82 | 14 | 0.9 | 1.7 | 0.00 | 0.00 | 0.00 | 50 | 1003.4 |
| 20260504222258 | 82 | 297 | 0.9 | 1.7 | 0.00 | 0.00 | 0.00 | 51 | 1003.3 |
| 20260504221755 | 82 | 305 | 1.7 | 5.2 | 0.00 | 0.00 | 0.00 | 48 | 1003.4 |
| 20260504221252 | 82 | 279 | 0.9 | 3.5 | 0.00 | 0.00 | 0.00 | 47 | 1003.5 |
| 20260504220749 | 82 | 318 | 0.9 | 1.7 | 0.00 | 0.00 | 0.00 | 51 | 1003.5 |
| 20260504220246 | 82 | 106 | 1.7 | 2.6 | 0.00 | 0.00 | 0.00 | 46 | 1003.6 |
| 20260504215743 | 82 | 13 | 0.0 | 0.9 | 0.00 | 0.00 | 0.00 | 51 | 1003.6 |
| 20260504215240 | 81 | 322 | 0.9 | 2.6 | 0.00 | 0.00 | 0.00 | 49 | 1003.7 |
| 20260504214736 | 81 | 292 | 1.7 | 3.5 | 0.00 | 0.00 | 0.00 | 50 | 1003.8 |
| 20260504214232 | 81 | 312 | 1.7 | 2.6 | 0.00 | 0.00 | 0.00 | 49 | 1003.8 |
| 20260504213729 | 81 | 310 | 2.6 | 5.2 | 0.00 | 0.00 | 0.00 | 48 | 1003.8 |
| 20260504213225 | 80 | 354 | 1.7 | 2.6 | 0.00 | 0.00 | 0.00 | 51 | 1003.7 |
| 20260504212722 | 81 | 198 | 1.7 | 7.0 | 0.00 | 0.00 | 0.00 | 48 | 1004.0 |
| 20260504212219 | 81 | 271 | 1.7 | 1.7 | 0.00 | 0.00 | 0.00 | 49 | 1003.8 |
| 20260504211717 | 82 | 291 | 2.6 | 3.5 | 0.00 | 0.00 | 0.00 | 47 | 1004.0 |
| 20260504211213 | 81 | 239 | 2.6 | 2.6 | 0.00 | 0.00 | 0.00 | 47 | 1004.0 |
| 20260504210710 | 81 | 353 | 1.7 | 5.2 | 0.00 | 0.00 | 0.00 | 46 | 1004.1 |
| 20260504210207 | 80 | 339 | 0.0 | 2.6 | 0.00 | 0.00 | 0.00 | 54 | 1004.0 |
| 20260504205704 | 80 | 299 | 1.7 | 3.5 | 0.00 | 0.00 | 0.00 | 48 | 1004.1 |
| 20260504205201 | 80 | 308 | 1.7 | 5.2 | 0.00 | 0.00 | 0.00 | 47 | 1004.3 |
| 20260504204700 | 81 | 318 | 1.7 | 3.5 | 0.00 | 0.00 | 0.00 | 46 | 1004.2 |
| 20260504204159 | 82 | 256 | 2.6 | 7.8 | 0.00 | 0.00 | 0.00 | 45 | 1004.2 |
| 20260504203657 | 82 | 78 | 1.7 | 6.1 | 0.00 | 0.00 | 0.00 | 49 | 1004.4 |
| 20260504203155 | 82 | 283 | 1.7 | 3.5 | 0.00 | 0.00 | 0.00 | 46 | 1004.4 |
| 20260504202654 | 82 | 320 | 3.5 | 6.1 | 0.00 | 0.00 | 0.00 | 44 | 1004.3 |
| 20260504202152 | 82 | 249 | 2.6 | 3.5 | 0.00 | 0.00 | 0.00 | 45 | 1004.2 |
| 20260504201648 | 81 | 348 | 0.0 | 5.2 | 0.00 | 0.00 | 0.00 | 55 | 1004.3 |
| 20260504201146 | 82 | 348 | 1.7 | 5.2 | 0.00 | 0.00 | 0.00 | 46 | 1004.2 |
| 20260504200643 | 83 | 284 | 1.7 | 5.2 | 0.00 | 0.00 | 0.00 | 48 | 1004.2 |
| 20260504200139 | 83 | 278 | 0.9 | 2.6 | 0.00 | 0.00 | 0.00 | 47 | 1004.5 |
| 20260504195635 | 83 | 268 | 1.7 | 3.5 | 0.00 | 0.00 | 0.00 | 45 | 1004.5 |
| 20260504195132 | 82 | 342 | 1.7 | 5.2 | 0.00 | 0.00 | 0.00 | 49 | 1004.5 |
| 20260504194629 | 83 | 271 | 3.5 | 5.2 | 0.00 | 0.00 | 0.00 | 46 | 1004.3 |
| 20260504194125 | 82 | 288 | 1.7 | 3.5 | 0.00 | 0.00 | 0.00 | 47 | 1004.3 |
| 20260504193621 | 81 | 268 | 0.9 | 6.1 | 0.00 | 0.00 | 0.00 | 48 | 1004.4 |
| 20260504193119 | 81 | 221 | 2.6 | 7.0 | 0.00 | 0.00 | 0.00 | 48 | 1004.5 |
| 20260504192617 | 82 | 283 | 1.7 | 5.2 | 0.00 | 0.00 | 0.00 | 48 | 1004.5 |
| 20260504192115 | 82 | 352 | 0.9 | 1.7 | 0.00 | 0.00 | 0.00 | 47 | 1004.4 |
| 20260504191613 | 81 | 142 | 1.7 | 3.5 | 0.00 | 0.00 | 0.00 | 50 | 1004.4 |
| 20260504191109 | 82 | 214 | 1.7 | 7.0 | 0.00 | 0.00 | 0.00 | 51 | 1004.5 |
| 20260504190605 | 82 | 239 | 4.3 | 6.1 | 0.00 | 0.00 | 0.00 | 46 | 1004.6 |
| 20260504185559 | 81 | 334 | 0.9 | 7.0 | 0.00 | 0.00 | 0.00 | 48 | 1004.6 |
| 20260504185055 | 80 | 295 | 1.7 | 3.5 | 0.00 | 0.00 | 0.00 | 47 | 1004.6 |
| 20260504184551 | 80 | 332 | 1.7 | 7.8 | 0.00 | 0.00 | 0.00 | 48 | 1004.7 |
| 20260504184046 | 81 | 157 | 1.7 | 3.5 | 0.00 | 0.00 | 0.00 | 47 | 1004.7 |
| 20260504183544 | 80 | 55 | 0.9 | 3.5 | 0.00 | 0.00 | 0.00 | 51 | 1004.7 |
| 20260504183042 | 80 | 309 | 1.7 | 2.6 | 0.00 | 0.00 | 0.00 | 51 | 1004.7 |
| 20260504182538 | 80 | 305 | 0.9 | 3.5 | 0.00 | 0.00 | 0.00 | 51 | 1004.6 |
| 20260504182036 | 80 | 290 | 0.9 | 6.1 | 0.00 | 0.00 | 0.00 | 53 | 1005.1 |
| 20260504181532 | 79 | 218 | 3.5 | 6.1 | 0.00 | 0.00 | 0.00 | 48 | 1005.1 |
| 20260504181031 | 79 | 170 | 2.6 | 6.1 | 0.00 | 0.00 | 0.00 | 49 | 1005.0 |
| 20260504180529 | 78 | 205 | 4.3 | 11.3 | 0.00 | 0.00 | 0.00 | 48 | 1005.0 |
| 20260504180028 | 78 | 278 | 2.6 | 3.5 | 0.00 | 0.00 | 0.00 | 49 | 1005.2 |
| 20260504175525 | 78 | 205 | 4.3 | 7.0 | 0.00 | 0.00 | 0.00 | 49 | 1005.3 |
| 20260504175022 | 78 | 221 | 2.6 | 6.1 | 0.00 | 0.00 | 0.00 | 48 | 1005.1 |
| 20260504174519 | 78 | 241 | 1.7 | 3.5 | 0.00 | 0.00 | 0.00 | 50 | 1005.2 |
| 20260504174016 | 79 | 357 | 1.7 | 3.5 | 0.00 | 0.00 | 0.00 | 48 | 1005.0 |
| 20260504173513 | 77 | 327 | 0.9 | 3.5 | 0.00 | 0.00 | 0.00 | 54 | 1005.1 |
| 20260504173011 | 78 | 292 | 1.7 | 6.1 | 0.00 | 0.00 | 0.00 | 50 | 1005.3 |
| 20260504172506 | 77 | 22 | 1.7 | 9.6 | 0.00 | 0.00 | 0.00 | 54 | 1005.4 |
| 20260504172003 | 78 | 30 | 0.9 | 6.1 | 0.00 | 0.00 | 0.00 | 53 | 1005.4 |
| 20260504171500 | 77 | 259 | 1.7 | 6.1 | 0.00 | 0.00 | 0.00 | 50 | 1005.5 |
| 20260504170957 | 77 | 240 | 3.5 | 6.1 | 0.00 | 0.00 | 0.00 | 49 | 1005.4 |
| 20260504170453 | 78 | 249 | 2.6 | 3.5 | 0.00 | 0.00 | 0.00 | 49 | 1005.5 |
| 20260504160413 | 76 | 207 | 5.2 | 6.1 | 0.00 | 0.00 | 0.00 | 49 | 1005.5 |
| 20260504150837 | 72 | 232 | 4.3 | 6.1 | 0.00 | 0.00 | 0.00 | 53 | 1005.6 |
| 20260504150333 | 72 | 277 | 5.2 | 7.0 | 0.00 | 0.00 | 0.00 | 52 | 1005.6 |
| 20260504141303 | 69 | 235 | 1.7 | 6.1 | 0.00 | 0.00 | 0.00 | 57 | 1005.4 |
| 20260504140800 | 68 | 316 | 0.9 | 1.7 | 0.00 | 0.00 | 0.00 | 56 | 1005.5 |
| 20260504140256 | 69 | 267 | 1.7 | 6.1 | 0.00 | 0.00 | 0.00 | 56 | 1005.5 |
| 20260504130724 | 67 | 326 | 1.7 | 7.0 | 0.00 | 0.00 | 0.00 | 56 | 1005.4 |
| 20260504130220 | 66 | 303 | 1.7 | 2.6 | 0.00 | 0.00 | 0.00 | 57 | 1005.6 |
| 20260504120144 | 63 | 265 | 3.5 | 5.2 | 0.00 | 0.00 | 0.00 | 59 | 1005.6 |
| 20260504110612 | 65 | 205 | 0.9 | 2.6 | 0.00 | 0.00 | 0.00 | 56 | 1005.9 |
| 20260504110108 | 64 | 118 | 3.5 | 5.2 | 0.00 | 0.00 | 0.00 | 56 | 1006.0 |
| 20260504100533 | 66 | 307 | 0.9 | 6.1 | 0.00 | 0.00 | 0.00 | 53 | 1005.7 |
| 20260504081927 | 67 | 234 | 1.7 | 3.5 | 0.00 | 0.00 | 0.00 | 53 | 1006.7 |
| 20260504081424 | 67 | 285 | 0.9 | 6.1 | 0.00 | 0.00 | 0.00 | 52 | 1006.7 |
| 20260504080920 | 66 | 349 | 0.9 | 3.5 | 0.00 | 0.00 | 0.00 | 55 | 1006.8 |
| 20260504080417 | 66 | 225 | 0.9 | 2.6 | 0.00 | 0.00 | 0.00 | 54 | 1007.0 |